Location: Country Club Park
(34.0503°N, 118.3212°W)
Time: 19:58:32
(UTC+00:00)

Tiangong - Visible Passes

Search period start: 03 December 2023 00:00
Search period end: 13 December 2023 00:00
Orbit: 373 x 383 km, 41.5° (Epoch: 03 December)

Date Brightness Start Highest point End Pass type
(mag) Time Alt. Az. Time Alt. Az. Time Alt. Az.
03 Dec -2.2 01:23:16 10° WNW 01:26:26 72° NNE 01:29:34 10° ESE visible
03 Dec 1.0 03:00:54 10° WSW 03:02:04 14° SW 03:02:04 14° SW visible
04 Dec -0.3 01:58:29 10° W 02:01:18 30° SW 02:04:07 10° SSE visible
06 Dec 0.9 01:32:12 10° W 01:34:20 17° SW 01:36:29 10° S visible
